Lehigh Valley, PA

2:06 AM EST on February 13, 2016 (GMT -0500)
Lehigh Valley International

Weather History for KABE - June, 2012

Change the Weather History Date:

Thursday, June 14, 2012

  Actual Average Record
Temperature  
Mean Temperature 68 °F 69 °F  
Max Temperature 80 °F 80 °F 95 °F (1988)
Min Temperature 56 °F 58 °F 44 °F (1933)
Degree Days  
Heating Degree Days 0 1  
Month to date heating degree days 24 26  
Since 1 June heating degree days 24 26  
Since 1 July heating degree days 4521 5794  
Cooling Degree Days 3 5  
Month to date cooling degree days 40 54  
Year to date cooling degree days 159 99  
Since 1 June cooling degree days 40 54  
Growing Degree Days 17 (Base 50)    
Moisture  
Dew Point 56 °F    
Average Humidity 66    
Maximum Humidity 86    
Minimum Humidity 45    
Precipitation  
Precipitation 0.00 in 0.15 in 2.42 in (1947)
Month to date precipitation 4.22 2.01  
Year to date precipitation 17.84 18.83  
Snow  
Snow 0.00 in 0.00 in 0.00 in (2002)
Month to date snowfall 0.0 0.0  
Since 1 June snowfall 0.0 0.0  
Since 1 July snowfall 12.0 32.9  
Snow Depth 0.00 in    
Sea Level Pressure  
Sea Level Pressure 30.18 in    
Wind  
Wind Speed 6 mph (ENE)    
Max Wind Speed 15 mph    
Max Gust Speed 20 mph    
Visibility 10 miles    
Events      
T = Trace of Precipitation, MM = Missing Value Source: NWS Daily Summary

Daily Weather History Graph

Daily Weather History Graph

Search for Another Location

Airport or City:

Trip Planner

Search our weather history database for the weather conditions in past years. The results will help you decide how hot, cold, wet, or windy it might be!

Date:

Astronomy

Jun. 14, 2012 Rise Set
Actual Time 5:30 AM EDT 8:34 PM EDT
Civil Twilight 4:56 AM EDT 9:07 PM EDT
Nautical Twilight 4:14 AM EDT 9:50 PM EDT
Astronomical Twilight 3:24 AM EDT 10:40 PM EDT
Moon 2:12 AM EDT (6/14) 4:14 PM EDT (6/14)
Length of Visible Light 16h 10m
Length of Day
15h 04m
Waning Crescent, 21% of the Moon is Illuminated
Jun 14
Waning Crescent
Jun 19
New
Jun 26
First Quarter
Jul 3
Full
Jul 10
Last Quarter

Hourly Weather History & Observations

Time (EDT) Temp. Dew Point Humidity Pressure Visibility Wind Dir Wind Speed Gust Speed Precip Events Conditions
12:51 AM 63.0 °F 52.0 °F 67% 30.09 in 10.0 mi NNE 3.5 mph - N/A   Clear
1:51 AM 61.0 °F 53.1 °F 75% 30.09 in 10.0 mi Calm Calm - N/A   Clear
2:51 AM 60.1 °F 53.1 °F 78% 30.11 in 10.0 mi WNW 3.5 mph - N/A   Clear
3:51 AM 57.9 °F 53.1 °F 84% 30.12 in 10.0 mi Calm Calm - N/A   Clear
4:51 AM 57.9 °F 53.1 °F 84% 30.12 in 10.0 mi Calm Calm - N/A   Clear
5:51 AM 59.0 °F 53.1 °F 81% 30.14 in 10.0 mi Calm Calm - N/A   Partly Cloudy
6:51 AM 62.1 °F 54.0 °F 75% 30.17 in 10.0 mi ENE 6.9 mph - N/A   Partly Cloudy
7:51 AM 64.9 °F 54.0 °F 68% 30.19 in 10.0 mi NE 10.4 mph - N/A   Clear
8:51 AM 66.9 °F 54.0 °F 63% 30.20 in 10.0 mi ENE 13.8 mph - N/A   Clear
9:51 AM 70.0 °F 55.0 °F 59% 30.20 in 10.0 mi NNE 11.5 mph - N/A   Clear
10:51 AM 73.0 °F 57.0 °F 57% 30.20 in 10.0 mi NE 12.7 mph 17.3 mph N/A   Clear
11:51 AM 75.0 °F 57.9 °F 55% 30.20 in 10.0 mi NE 8.1 mph - N/A   Clear
12:51 PM 75.9 °F 59.0 °F 56% 30.20 in 10.0 mi ENE 9.2 mph - N/A   Scattered Clouds
1:51 PM 78.1 °F 57.9 °F 50% 30.19 in 10.0 mi NE 9.2 mph - N/A   Partly Cloudy
2:51 PM 77.0 °F 57.0 °F 50% 30.19 in 10.0 mi ENE 5.8 mph - N/A   Mostly Cloudy
3:51 PM 77.0 °F 57.0 °F 50% 30.18 in 10.0 mi East 6.9 mph - N/A   Scattered Clouds
4:51 PM 79.0 °F 55.9 °F 45% 30.18 in 10.0 mi NE 9.2 mph - N/A   Partly Cloudy
5:51 PM 77.0 °F 55.0 °F 47% 30.19 in 10.0 mi ENE 5.8 mph - N/A   Mostly Cloudy
6:51 PM 78.1 °F 55.9 °F 46% 30.19 in 10.0 mi NE 5.8 mph - N/A   Partly Cloudy
7:51 PM 75.0 °F 57.9 °F 55% 30.20 in 10.0 mi SE 6.9 mph - N/A   Mostly Cloudy
8:51 PM 73.0 °F 57.9 °F 59% 30.22 in 10.0 mi SE 5.8 mph - N/A   Scattered Clouds
9:51 PM 70.0 °F 59.0 °F 68% 30.24 in 10.0 mi SE 8.1 mph - N/A   Scattered Clouds
10:51 PM 68.0 °F 60.1 °F 76% 30.25 in 10.0 mi SSE 5.8 mph - N/A   Clear
11:51 PM 66.9 °F 60.1 °F 79% 30.25 in 10.0 mi SSE 5.8 mph - N/A   Clear